EW1734 Weather Reports


Display with metric or nautical units.
time (UTC)temp
F
wind
direction
speed
MPH
gust
MPH
rain 1hr
in
rain 24hr
in
rain mn
in
humidity
%
barometer
mb
20260505074047 55 323 0.0 3.0 0.00 0.00 0.00 74 1014.9
20260505073544 55 13 0.0 2.0 0.00 0.00 0.00 74 1014.9
20260505073043 55 26 1.0 2.0 0.00 0.00 0.00 74 1014.7
20260505072538 55 29 1.0 2.0 0.00 0.00 0.00 73 1014.7
20260505072035 55 35 2.0 4.0 0.00 0.00 0.00 73 1014.7
20260505071530 55 78 1.0 2.0 0.00 0.00 0.00 75 1014.8
20260505071029 55 61 2.0 2.0 0.00 0.00 0.00 76 1014.7
20260505070526 55 68 0.0 2.0 0.00 0.00 0.00 76 1014.7
20260505070021 55 51 1.0 2.0 0.00 0.00 0.00 77 1014.7
20260505065518 55 101 2.0 4.0 0.00 0.00 0.00 77 1014.8
20260505065014 55 38 2.0 2.0 0.00 0.00 0.00 78 1014.6
20260505064511 55 57 2.0 2.0 0.00 0.00 0.00 77 1014.8
20260505064010 55 109 1.0 2.0 0.00 0.00 0.00 78 1014.8
20260505063507 55 61 1.0 3.0 0.00 0.00 0.00 77 1014.8
20260505063002 55 115 2.0 2.0 0.00 0.00 0.00 78 1014.8
20260505062459 55 157 0.0 1.0 0.00 0.00 0.00 78 1014.7
20260505061956 55 119 0.0 2.0 0.00 0.00 0.00 78 1014.6
20260505061454 55 63 2.0 4.0 0.00 0.00 0.00 78 1014.6
20260505060952 55 94 1.0 3.0 0.00 0.00 0.00 78 1014.8
20260505060449 55 58 2.0 2.0 0.00 0.00 0.00 79 1014.7
20260505055945 55 99 0.0 0.0 0.00 0.00 0.00 79 1014.8
20260505055441 55 69 2.0 2.0 0.00 0.00 0.00 80 1014.9
20260505054938 55 75 2.0 2.0 0.00 0.00 0.00 79 1014.7
20260505054435 55 116 0.0 3.0 0.00 0.00 0.00 79 1014.8
20260505053933 55 146 0.0 2.0 0.00 0.00 0.00 80 1014.8
20260505053430 55 60 0.0 2.0 0.00 0.00 0.00 79 1015.0
20260505052927 55 48 3.0 4.0 0.00 0.00 0.00 80 1014.8
20260505052424 55 44 0.0 4.0 0.00 0.00 0.00 81 1014.8
20260505051921 55 86 2.0 2.0 0.00 0.00 0.00 82 1014.9
20260505051418 55 87 0.0 1.0 0.00 0.00 0.00 81 1014.8
20260505050916 55 113 0.0 2.0 0.00 0.00 0.00 81 1014.8
20260505050414 55 99 0.0 1.0 0.00 0.00 0.00 80 1014.9
20260505041341 57 325 0.0 2.0 0.00 0.00 0.00 76 1014.9
20260505040839 57 0 0.0 2.0 0.00 0.00 0.00 76 1015.0
20260505040336 57 34 0.0 2.0 0.00 0.00 0.00 76 1014.9
20260505035833 57 173 0.0 2.0 0.00 0.00 0.00 77 1014.9
20260505035328 57 256 2.0 4.0 0.00 0.00 0.00 77 1015.1
20260505034826 57 350 2.0 3.0 0.00 0.00 0.00 76 1014.9
20260505034322 57 296 0.0 3.0 0.00 0.00 0.00 76 1014.8
20260505033820 58 218 1.0 6.0 0.00 0.00 0.00 75 1014.8
20260505033316 58 57 1.0 2.0 0.00 0.00 0.00 75 1014.6
20260505032815 58 234 2.0 4.0 0.00 0.00 0.00 74 1014.6
20260505032311 59 334 1.0 2.0 0.00 0.00 0.00 72 1014.4
20260505031808 59 46 2.0 2.0 0.00 0.00 0.00 72 1014.5
20260505031304 58 355 4.0 4.0 0.00 0.00 0.00 71 1014.5
20260505030802 58 44 0.0 3.0 0.00 0.00 0.00 71 1014.4
20260505030258 58 348 2.0 2.0 0.00 0.00 0.00 71 1014.3
20260505030120 58 95 0.0 0.0 0.00 0.00 0.00 71 1013.4
20260505030047 58 95 0.0 1.0 0.00 0.00 0.00 71 1013.4
20260505030002 58 0.0 0.0 0.00 0.00 0.00 71
20260505025753 58 187 0.0 2.0 0.00 0.00 0.00 71 1014.3
20260505025251 58 71 0.0 2.0 0.00 0.00 0.00 71 1014.4
20260505024749 59 348 0.0 2.0 0.00 0.00 0.00 71 1014.2
20260505024246 59 63 1.0 2.0 0.00 0.00 0.00 71 1014.0
20260505023744 59 162 2.0 3.0 0.00 0.00 0.00 71 1014.3
20260505023241 59 23 0.0 2.0 0.00 0.00 0.00 70 1013.9
20260505022738 59 25 0.0 3.0 0.00 0.00 0.00 70 1014.2
20260505022235 59 322 1.0 5.0 0.00 0.00 0.00 69 1014.1
20260505021731 59 34 0.0 3.0 0.00 0.00 0.00 68 1014.2
20260505021229 59 323 3.0 4.0 0.00 0.00 0.00 68 1013.9
20260505020724 59 13 2.0 3.0 0.00 0.00 0.00 68 1014.2
20260505020220 59 309 0.0 3.0 0.00 0.00 0.00 67 1014.1
20260505015717 60 21 2.0 3.0 0.00 0.00 0.00 66 1014.1
20260505015214 60 14 2.0 3.0 0.00 0.00 0.00 64 1014.2
20260505014711 61 316 2.0 6.0 0.00 0.00 0.00 63 1013.9
20260505014209 62 283 2.0 4.0 0.00 0.00 0.00 60 1013.9
20260505013705 62 271 2.0 3.0 0.00 0.00 0.00 61 1013.9
20260505013202 62 174 1.0 4.0 0.00 0.00 0.00 60 1014.0
20260505012701 63 320 0.0 3.0 0.00 0.00 0.00 59 1014.1
20260505012157 63 208 2.0 4.0 0.00 0.00 0.00 59 1014.2
20260505011653 63 266 1.0 6.0 0.00 0.00 0.00 60 1014.1
20260505011150 64 218 1.0 5.0 0.00 0.00 0.00 57 1014.1
20260505010645 64 9 2.0 4.0 0.00 0.00 0.00 55 1014.3
20260505010143 65 35 2.0 4.0 0.00 0.00 0.00 54 1014.2
20260505005638 66 31 1.0 3.0 0.00 0.00 0.00 53 1014.4
20260505005136 65 181 6.0 6.0 0.00 0.00 0.00 54 1014.2
20260505004633 66 283 0.0 6.0 0.00 0.00 0.00 54 1014.0
20260505004129 66 36 2.0 4.0 0.00 0.00 0.00 54 1014.2
20260505003627 65 189 1.0 3.0 0.00 0.00 0.00 54 1014.2
20260505003124 65 148 4.0 7.0 0.00 0.00 0.00 58 1014.2
20260505002620 65 180 0.0 6.0 0.00 0.00 0.00 59 1014.2
20260505002118 66 294 3.0 3.0 0.00 0.00 0.00 57 1014.2
20260505001615 65 245 2.0 6.0 0.00 0.00 0.00 58 1013.9
20260505001113 67 269 4.0 6.0 0.00 0.00 0.00 53 1013.9
20260505000610 65 8 0.0 6.0 0.00 0.00 0.00 54 1014.0
20260505000108 65 193 4.0 6.0 0.00 0.00 0.00 56 1013.9
20260504235604 65 280 3.0 8.0 0.00 0.00 0.00 55 1014.1
20260504235100 65 184 3.0 5.0 0.00 0.00 0.00 56 1013.8
20260504234557 65 287 2.0 6.0 0.00 0.00 0.00 55 1014.0
20260504234055 67 180 2.0 8.0 0.00 0.00 0.00 53 1013.9
20260504233550 68 329 0.0 4.0 0.00 0.00 0.00 50 1013.9
20260504233047 67 102 2.0 4.0 0.00 0.00 0.00 50 1013.9
20260504232544 66 278 2.0 5.0 0.00 0.00 0.00 52 1014.1
20260504232042 66 31 0.0 4.0 0.00 0.00 0.00 50 1014.1
20260504231538 68 333 2.0 4.0 0.00 0.00 0.00 49 1014.0
20260504231034 67 276 2.0 4.0 0.00 0.00 0.00 50 1014.1
20260504230530 69 314 3.0 4.0 0.00 0.00 0.00 48 1014.1
20260504230030 68 12 4.0 5.0 0.00 0.00 0.00 49 1014.1
20260504225526 68 320 1.0 5.0 0.00 0.00 0.00 49 1014.2
20260504225023 67 344 3.0 5.0 0.00 0.00 0.00 49 1014.4
20260504224520 68 102 3.0 4.0 0.00 0.00 0.00 49 1014.3
20260504224017 68 303 2.0 7.0 0.00 0.00 0.00 49 1014.4
20260504223513 67 283 2.0 5.0 0.00 0.00 0.00 49 1014.6
20260504223009 67 269 3.0 8.0 0.00 0.00 0.00 50 1014.4
20260504222506 67 61 2.0 6.0 0.00 0.00 0.00 50 1014.2
20260504222004 67 79 2.0 5.0 0.00 0.00 0.00 50 1014.1
20260504221501 67 247 3.0 6.0 0.00 0.00 0.00 50 1014.2
20260504220958 68 296 1.0 4.0 0.00 0.00 0.00 49 1014.5
20260504220454 68 185 2.0 8.0 0.00 0.00 0.00 48 1014.5
20260504215951 69 191 2.0 4.0 0.00 0.00 0.00 46 1014.4
20260504215448 69 27 1.0 6.0 0.00 0.00 0.00 46 1014.7
20260504214944 69 343 3.0 5.0 0.00 0.00 0.00 46 1014.4
20260504214441 68 331 0.0 6.0 0.00 0.00 0.00 47 1014.6
20260504213938 67 280 3.0 9.0 0.00 0.00 0.00 50 1014.6
20260504213433 65 282 0.0 5.0 0.00 0.00 0.00 54 1014.5
20260504212932 64 192 5.0 9.0 0.00 0.00 0.00 53 1014.4
20260504212427 66 173 4.0 6.0 0.00 0.00 0.00 51 1014.8
20260504211925 68 180 2.0 4.0 0.00 0.00 0.00 43 1014.6
20260504211421 69 219 4.0 5.0 0.00 0.00 0.00 42 1014.6
20260504210918 68 243 2.0 5.0 0.00 0.00 0.00 43 1014.5
20260504210415 68 287 2.0 3.0 0.00 0.00 0.00 44 1014.7
20260504205912 68 265 0.0 5.0 0.00 0.00 0.00 43 1014.6
20260504205410 68 312 1.0 11.0 0.00 0.00 0.00 42 1014.8
20260504204908 69 355 2.0 6.0 0.00 0.00 0.00 42 1014.5
20260504204406 69 4 5.0 5.0 0.00 0.00 0.00 41 1014.7
20260504203905 70 13 1.0 5.0 0.00 0.00 0.00 41 1014.8
20260504203402 70 286 3.0 4.0 0.00 0.00 0.00 39 1014.8
20260504202857 68 212 4.0 6.0 0.00 0.00 0.00 44 1014.7
20260504202355 68 175 3.0 4.0 0.00 0.00 0.00 47 1014.7
20260504201851 67 278 2.0 4.0 0.00 0.00 0.00 43 1014.5
20260504201349 67 339 3.0 9.0 0.00 0.00 0.00 45 1014.8
20260504200846 68 111 3.0 6.0 0.00 0.00 0.00 45 1015.0
20260504200343 67 97 0.0 4.0 0.00 0.00 0.00 45 1014.8
20260504195839 67 192 2.0 5.0 0.00 0.00 0.00 45 1014.8
20260504195334 67 234 4.0 6.0 0.00 0.00 0.00 44 1014.9
20260504194832 67 89 0.0 2.0 0.00 0.00 0.00 46 1014.8
20260504194328 67 157 3.0 8.0 0.00 0.00 0.00 45 1014.9
20260504193824 67 166 2.0 3.0 0.00 0.00 0.00 46 1014.8
20260504193321 67 230 0.0 4.0 0.00 0.00 0.00 47 1014.8
20260504192820 67 228 3.0 7.0 0.00 0.00 0.00 46 1014.9
20260504192318 67 216 0.0 4.0 0.00 0.00 0.00 47 1015.1
20260504191816 67 35 0.0 4.0 0.00 0.00 0.00 47 1015.1
20260504191313 67 181 3.0 4.0 0.00 0.00 0.00 48 1014.9
20260504190808 67 276 1.0 6.0 0.00 0.00 0.00 47 1015.2
20260504190305 66 352 2.0 3.0 0.00 0.00 0.00 52 1015.3
20260504185801 65 330 2.0 4.0 0.00 0.00 0.00 51 1015.5
20260504185258 66 280 2.0 3.0 0.00 0.00 0.00 51 1015.2
20260504184754 66 296 1.0 2.0 0.00 0.00 0.00 51 1015.3
20260504184250 66 346 0.0 4.0 0.00 0.00 0.00 49 1015.3
20260504183746 66 308 3.0 5.0 0.00 0.00 0.00 50 1015.3
20260504183243 65 340 3.0 3.0 0.00 0.00 0.00 51 1015.2
20260504182742 64 18 0.0 2.0 0.00 0.00 0.00 52 1015.3
20260504182238 65 11 2.0 3.0 0.00 0.00 0.00 51 1015.5
20260504181736 67 248 1.0 4.0 0.00 0.00 0.00 48 1015.2
20260504181233 66 277 2.0 6.0 0.00 0.00 0.00 49 1015.4
20260504180732 65 209 2.0 4.0 0.00 0.00 0.00 49 1015.3
20260504180231 65 177 3.0 3.0 0.00 0.00 0.00 52 1015.4
20260504175728 65 239 4.0 4.0 0.00 0.00 0.00 50 1015.0
20260504175224 65 338 3.0 4.0 0.00 0.00 0.00 51 1015.5
20260504174723 64 337 3.0 4.0 0.00 0.00 0.00 52 1015.4
20260504174220 65 253 0.0 4.0 0.00 0.00 0.00 51 1015.3
20260504173716 64 319 3.0 3.0 0.00 0.00 0.00 52 1015.2
20260504173213 62 271 0.0 4.0 0.00 0.00 0.00 53 1015.3
20260504172710 64 6 0.0 3.0 0.00 0.00 0.00 51 1015.3
20260504172206 63 131 0.0 2.0 0.00 0.00 0.00 54 1015.3
20260504171703 62 177 2.0 4.0 0.00 0.00 0.00 55 1015.2
20260504171200 62 53 1.0 2.0 0.00 0.00 0.00 56 1015.2
20260504170656 62 119 1.0 3.0 0.00 0.00 0.00 55 1015.2
20260504170154 62 145 2.0 4.0 0.00 0.00 0.00 57 1015.2
20260504160112 62 102 0.0 3.0 0.00 0.00 0.00 57 1015.1
20260504151044 61 57 0.0 2.0 0.00 0.00 0.00 63 1015.2
20260504150542 60 42 2.0 2.0 0.00 0.00 0.00 65 1014.9
20260504141008 53 323 0.0 2.0 0.00 0.00 0.00 84 1014.9
20260504140504 52 47 2.0 2.0 0.00 0.00 0.00 85 1015.0
20260504130429 52 109 0.0 2.0 0.00 0.00 0.00 85 1014.5
20260504110316 54 50 0.0 2.0 0.00 0.00 0.00 81 1014.3
20260504100234 54 89 0.0 2.0 0.00 0.00 0.00 80 1014.2
20260504081627 53 56 0.0 2.0 0.00 0.00 0.00 84 1015.5
20260504081123 53 28 3.0 3.0 0.00 0.00 0.00 84 1015.4
20260504080620 53 40 3.0 3.0 0.00 0.00 0.00 84 1015.0
20260504080116 53 55 2.0 3.0 0.00 0.00 0.00 84 1015.2